Regional Weather Roundup
Issued by NWS Memphis, TN

Home | Current Version | Previous Version | Text Only | Print | Product List | Glossary On
Versions: 1 2 3 4 5 6 7 8 9 10 11 12 13 14 15 16 17 18 19 20 21 22 23 24 25 26 27 28 29 30 31 32 33 34 35 36 37 38 39 40 41 42 43 44 45 46 47 48 49 50
000
ASUS44 KMEG 260710
RWRMEG
MEMPHIS CWA HOURLY WEATHER ROUNDUP
NATIONAL WEATHER SERVICE MEMPHIS TN
100 AM CST MON JAN 26 2015

...WEST TENNESSEE...

CITY           SKY/WX    TMP DP  RH WIND       PRES   REMARKS
MEMPHIS INTL   CLOUDY    43  33  68 NW17G24   29.97R
NWS MEMPHIS      N/A     42 N/A N/A MISG        N/A
JACKSON        CLOUDY    39  33  79 N17G26    29.91R WCI  30
LEXINGTON      CLOUDY    39  36  87 NW13      29.84R WCI  32
SAVANNAH       CLOUDY    41  39  93 NW9       29.86R
DYERSBURG      CLOUDY    37  23  56 N16G26    29.96R WCI  28
UNION CITY     CLOUDY    34  34 100 NW15      29.92R WCI  24
PARIS          CLOUDY    34  30  86 N15       29.88R WCI  24


...EASTERN ARKANSAS...

CITY           SKY/WX    TMP DP  RH WIND       PRES   REMARKS
JONESBORO      CLOUDY    38  32  79 NW15G25   30.00R WCI  29
WEST MEMPHIS   HAZE      41  35  79 NW10G21   29.99R VSB 1
BATESVILLE     CLOUDY    39  30  70 W8G18     30.04R WCI  34
NEWPORT        CLOUDY    41  33  73 NW21      30.04R
WALNUT RIDGE   CLOUDY    37  30  75 NW15      30.02R WCI  28
BLYTHEVILLE    CLOUDY    39  34  82 N22G31    29.97R WCI  29
SEARCY         CLOUDY    42  33  70 NW9       30.06R
STUTTGART      CLOUDY    45  32  61 NW15      30.04R
PINE BLUFF     MOCLDY    44  32  62 NW13      30.05R
MONTICELLO     MOCLDY    47  32  56 NW8       30.04R


...NORTH MISSISSIPPI...

CITY           SKY/WX    TMP DP  RH WIND       PRES   REMARKS
TUPELO         CLOUDY    44  35  70 NW8       29.91R
OXFORD         CLOUDY    41  34  75 NW13G24   29.96R
OLIVE BRANCH   CLOUDY    39  37  93 NW17G23   29.96R WCI  30
TUNICA         CLOUDY    43  36  75 NW22G28   30.00R
CLARKSDALE     CLOUDY    45  37  76 NW20      30.00R
CORINTH        CLOUDY    43  39  87 NW13G18   29.87S
GRENADA        CLOUDY    45  34  65 NW12G18   29.97R
GREENWOOD      CLOUDY    46  35  65 VRB7      29.99R
COLUMBUS       CLOUDY    45  34  66 NW17G24   29.91R
STARKVILLE     CLOUDY    45  36  70 NW9       29.92R
GOLDEN TRIANGL CLOUDY    45  34  65 NW12      29.91R


...SOUTHEAST MISSOURI...

CITY           SKY/WX    TMP DP  RH WIND       PRES   REMARKS
WEST PLAINS    CLOUDY    33  29  85 NW10      30.03S WCI  25
POPLAR BLUFF   CLOUDY    36  30  79 NW13      29.99R WCI  27
CAPE GIRARDEAU CLOUDY    34  30  85 N16G29    29.98R WCI  24


...NORTHWEST ALABAMA...

CITY           SKY/WX    TMP DP  RH WIND       PRES   REMARKS
MUSCLE SHOALS  CLOUDY    43  38  82 NW13      29.84R


...MIDDLE TENNESSEE...

CITY           SKY/WX    TMP DP  RH WIND       PRES   REMARKS
NASHVILLE      CLOUDY    42  39  89 NW13G24   29.77R
CLARKSVILLE    CLOUDY    37  35  92 NW20G28   29.83R FOG     WCI  27
COLUMBIA       CLOUDY   N/A N/A N/A NW7       29.76R


...WESTERN KENTUCKY...

CITY           SKY/WX    TMP DP  RH WIND       PRES   REMARKS
PADUCAH        CLOUDY    35  31  85 NW16G26   29.91R WCI  25
FORT CAMPBELL  CLOUDY    36  34  93 NW15G28   29.83R WCI  27


...CENTRAL ARKANSAS...

CITY           SKY/WX    TMP DP  RH WIND       PRES   REMARKS
LITTLE ROCK    PTCLDY    44  32  62 NW12      30.06R


SKY/WX REPORTED AS FAIR MEANS FEW OR NO CLOUDS BELOW
12 THOUSAND FEET.



USA.gov is the U.S. government's official web portal to all federal, state and local government web resources and services.